EW5191 Weather Reports


Display with metric or nautical units.
time (UTC)temp
F
wind
direction
speed
MPH
gust
MPH
rain 1hr
in
rain 24hr
in
rain mn
in
humidity
%
barometer
mb
20260505054543 46 251 2.0 6.0 0.00 0.00 0.00 56 1013.4
20260505053040 46 218 1.0 3.0 0.00 0.00 0.00 61 1013.3
20260505051540 46 260 2.0 4.0 0.00 0.00 0.00 58 1013.2
20260505050140 47 352 12.0 20.0 0.00 0.00 0.00 57 1013.6
20260505041536 49 8 7.0 11.0 0.00 0.00 0.00 46 1012.8
20260505040033 50 347 9.0 13.0 0.00 0.00 0.00 46 1012.7
20260505034534 50 349 10.0 14.0 0.00 0.00 0.00 46 1012.4
20260505033131 50 348 10.0 19.0 0.00 0.00 0.00 46 1012.2
20260505031527 51 357 13.0 19.0 0.00 0.00 0.00 45 1011.9
20260505030025 51 348 13.0 20.0 0.00 0.00 0.00 44 1011.5
20260505024537 51 341 13.0 18.0 0.00 0.00 0.00 44 1011.2
20260505023120 51 348 12.0 21.0 0.00 0.00 0.00 43 1010.7
20260505021521 52 348 16.0 20.0 0.00 0.00 0.00 42 1010.6
20260505020016 52 327 13.0 23.0 0.00 0.00 0.00 42 1010.3
20260505014514 53 13 14.0 21.0 0.00 0.00 0.00 42 1010.0
20260505013115 54 352 15.0 23.0 0.00 0.00 0.00 41 1009.6
20260505011512 54 346 16.0 23.0 0.00 0.00 0.00 41 1009.4
20260505010012 55 7 12.0 23.0 0.00 0.00 0.00 42 1009.0
20260505004515 56 341 16.0 23.0 0.00 0.00 0.00 40 1008.9
20260505003110 57 8 16.0 23.0 0.00 0.00 0.00 39 1008.5
20260505001509 58 352 14.0 21.0 0.00 0.00 0.00 39 1008.4
20260505000025 58 339 14.0 21.0 0.00 0.00 0.00 38 1008.0
20260504234509 60 342 14.0 22.0 0.00 0.00 0.00 37 1008.0
20260504233108 61 350 12.0 21.0 0.00 0.00 0.00 37 1007.9
20260504231522 61 353 12.0 19.0 0.00 0.00 0.00 38 1007.8
20260504230010 61 347 12.0 21.0 0.00 0.00 0.00 37 1007.7
20260504224508 60 327 15.0 19.0 0.00 0.00 0.00 37 1007.6
20260504223108 59 357 14.0 21.0 0.00 0.00 0.00 38 1007.7
20260504221508 59 330 14.0 22.0 0.00 0.00 0.00 38 1007.7
20260504220016 59 346 14.0 23.0 0.00 0.00 0.00 39 1007.6
20260504214509 59 354 17.0 21.0 0.00 0.00 0.00 39 1007.7
20260504213108 61 25 14.0 22.0 0.00 0.00 0.00 38 1007.8
20260504211508 61 350 11.0 18.0 0.00 0.00 0.00 36 1007.8
20260504210006 61 296 8.0 16.0 0.00 0.00 0.00 36 1007.7
20260504204505 61 318 8.0 17.0 0.00 0.00 0.00 37 1007.9
20260504203105 61 346 10.0 21.0 0.00 0.00 0.00 38 1008.2
20260504201502 59 31 10.0 17.0 0.00 0.00 0.00 39 1008.2
20260504200002 59 350 11.0 19.0 0.00 0.00 0.00 40 1008.2
20260504194501 60 323 11.0 22.0 0.00 0.00 0.00 39 1008.3
20260504193103 59 25 11.0 20.0 0.00 0.00 0.00 39 1008.6
20260504191558 59 10 6.0 17.0 0.00 0.00 0.00 39 1008.5
20260504190128 59 316 4.0 14.0 0.00 0.00 0.00 40 1008.7
20260504184558 58 349 6.0 13.0 0.00 0.00 0.00 41 1008.8
20260504183056 58 345 7.0 16.0 0.00 0.00 0.00 41 1009.1
20260504181604 58 357 9.0 15.0 0.00 0.00 0.00 41 1009.3
20260504180150 57 337 7.0 15.0 0.00 0.00 0.00 42 1009.4
20260504174555 55 336 7.0 14.0 0.00 0.00 0.00 44 1009.4
20260504173111 55 2 8.0 19.0 0.00 0.00 0.00 43 1009.4
20260504171549 55 2 9.0 16.0 0.00 0.00 0.00 43 1009.3
20260504081547 51 163 2.0 2.0 0.00 0.00 0.00 49 1005.2